GAOFEN-4

Last updated on Sat Sep 19 2026 00:02:45 GMT+0000 (Coordinated Universal Time)

1 41194U 15083A 26261.60926219 -.00000339 00000+0 00000+0 0 9992 2 41194 0.5921 83.2609 0003531 135.6780 103.6163 1.00269299 39468
UTC large
Height (km)
Speed (km/s)
/
Latitude / Longitude
Inclination (degrees)
Orbital Period (minutes)
Azimuth
Elevation
Range (km)
Doppler Factor

Next 0 passes for location: London (51.5072 / 0.1276)

No passes found over London.
GAOFEN-4